Location: Writing-on-Stone Provincial Park
(49.0825°N, 111.6163°W)
Time: 00:57:59
(UTC-06:00)

Amateur Radio Satellites - All Passes

Search period start: 28 August 2016 00:27
Search period end: 29 August 2016 00:27
Location: Writing-on-Stone Provincial Park, 49.0825°N, 111.6163°W

Satellite Date Start Highest point End Downlink Frequencies (MHz)
Time Altitude Azimuth
UKube-1 28 Aug 00:30:32 00:34:50 65° 72° (ENE) 00:39:09 .
GONETS M04 28 Aug 00:39:18 00:47:59 61° 269° (W) 00:56:37
UNISAT 6 28 Aug 00:41:09 00:45:09 37° 292° (WNW) 00:49:05 437.425
JAS-2 28 Aug 00:57:00 01:03:13 38° 96° (E) 01:10:01 435.910
CUSAT 1 28 Aug 01:05:17 01:08:12 34° 292° (WNW) 01:11:51 437.405
O/OREOS (USA 219) 28 Aug 01:07:27 01:11:30 31° 254° (WSW) 01:15:32 437.305
BUGSAT 1 28 Aug 01:07:43 01:11:21 28° 95° (E) 01:14:55 437.445
VELOX 1 28 Aug 01:10:42 01:14:39 31° 264° (W) 01:18:38 145.980
QB50P1 28 Aug 01:11:09 01:15:25 77° 102° (ESE) 01:19:37 145.935-145.965
CUBEBUG 1 28 Aug 01:12:30 01:16:10 25° 266° (W) 01:19:53 437.445
SO-50 28 Aug 01:16:44 01:21:36 79° 310° (NW) 01:26:25 436.795
ANTELSAT 28 Aug 01:18:53 01:21:52 19° 300° (WNW) 01:24:49 437.575/2403.000
POPSAT HIP 1 28 Aug 01:21:13 01:25:28 86° 288° (WNW) 01:29:41 437.405
SWISSCUBE 28 Aug 01:26:54 01:30:03 18° 58° (ENE) 01:33:13 437.505
DX 1 28 Aug 01:27:13 01:31:03 29° 265° (W) 01:34:55 434.975-435.025
SPROUT 28 Aug 01:28:21 01:32:22 37° 263° (W) 01:36:24 437.525
Cosmos 2499 28 Aug 01:35:06 01:41:05 31° 276° (W) 01:47:05 435.465 / 435.565
50 SAT 28 Aug 01:35:17 01:37:05 13° 270° (W) 01:38:53 437.505
BEESAT 28 Aug 01:43:24 01:47:02 22° 60° (ENE) 01:50:41 436.000
RS-15 28 Aug 01:43:37 01:54:24 47° 111° (ESE) 02:05:40 29.354- 29.394
TISAT 1 28 Aug 01:45:56 01:50:12 86° 77° (ENE) 01:54:29 437.305
DUCHIFAT 1 28 Aug 01:48:46 01:52:51 50° 290° (WNW) 01:56:53 145.980
TIGRISAT 28 Aug 01:51:23 01:52:24 11° 306° (NW) 01:53:25 435.000
QB50P2 28 Aug 01:51:56 01:55:54 40° 292° (WNW) 01:59:51 145.880/145.840
POLYITAN 1 28 Aug 01:54:29 01:58:25 39° 292° (WNW) 02:02:20 437.675
NANOSAT C BR1 28 Aug 02:02:54 02:06:45 35° 293° (WNW) 02:10:34 145.865
AISAT 28 Aug 02:03:31 02:04:18 10° 274° (W) 02:05:03 437.250
DANDE 28 Aug 02:05:49 02:07:51 19° 294° (WNW) 02:10:05 436.750
UKube-1 28 Aug 02:08:45 02:11:19 15° 270° (W) 02:13:53 .
Gurwin Techsat 1B 28 Aug 02:18:36 02:21:54 16° 88° (E) 02:25:12 435.225
ITUPSAT 1 28 Aug 02:29:48 02:34:25 52° 70° (ENE) 02:39:03 437.325
GONETS M04 28 Aug 02:39:00 02:42:50 14° 291° (WNW) 02:46:40
JAS-2 28 Aug 02:42:02 02:48:24 52° 293° (WNW) 02:55:30 435.910
BUGSAT 1 28 Aug 02:43:02 02:46:44 31° 294° (WNW) 02:50:22 437.445
Oscar 19 28 Aug 02:44:00 02:49:06 52° 100° (E) 02:54:09 437.125/150
QB50P1 28 Aug 02:48:23 02:50:38 14° 302° (WNW) 02:52:53 145.935-145.965
POPSAT HIP 1 28 Aug 02:58:59 03:00:34 12° 304° (NW) 03:02:09 437.405
SO-50 28 Aug 02:59:04 03:02:49 22° 332° (NNW) 03:06:31 436.795
SWISSCUBE 28 Aug 03:02:35 03:07:20 73° 257° (WSW) 03:12:07 437.505
BEESAT 28 Aug 03:19:48 03:24:28 56° 259° (W) 03:29:10 436.000
KKS-1 28 Aug 03:22:40 03:26:16 24° 62° (ENE) 03:29:53 437.445
TISAT 1 28 Aug 03:25:12 03:26:28 11° 273° (W) 03:27:43 437.305
PHONESAT 2.4 28 Aug 03:27:27 03:28:49 12° 166° (SSE) 03:30:10 2401.200-2431.200
MOZHAYETS 4 28 Aug 03:30:27 03:34:32 33° 66° (ENE) 03:38:37
RS-15 28 Aug 03:54:44 04:06:27 69° 317° (NW) 04:18:47 29.354- 29.394
Gurwin Techsat 1B 28 Aug 03:57:11 04:02:31 81° 287° (WNW) 04:07:50 435.225
STARS 28 Aug 03:57:23 04:01:06 27° 63° (ENE) 04:04:49 437.465
ITAMSAT 1 28 Aug 03:59:03 04:03:51 37° 97° (E) 04:08:37 435.822/435.867
ITUPSAT 1 28 Aug 04:08:52 04:12:33 22° 268° (W) 04:16:16 437.325
Cosmos 2491 28 Aug 04:18:27 04:25:30 26° 58° (ENE) 04:32:30 435.465 / 435.565
Oscar 19 28 Aug 04:23:49 04:28:09 27° 299° (WNW) 04:32:28 437.125/150
JAS-2 28 Aug 04:29:21 04:32:14 13° 312° (NW) 04:35:14 435.910
SO-50 28 Aug 04:43:02 04:45:02 12° 356° (N) 04:47:01 436.795
AO-7 28 Aug 04:48:11 04:56:09 47° 100° (E) 05:04:02 29.400- 29.500
CUBESAT XI-V 28 Aug 04:51:35 04:55:37 31° 65° (ENE) 04:59:42 437.345
KKS-1 28 Aug 04:58:18 05:02:36 45° 261° (W) 05:06:57 437.445
PHONESAT 2.4 28 Aug 05:02:31 05:04:29 16° 183° (S) 05:06:26 2401.200-2431.200
MOZHAYETS 4 28 Aug 05:07:37 05:11:42 32° 265° (W) 05:15:49
AO-85 28 Aug 05:16:37 05:20:12 19° 112° (ESE) 05:23:40 145.980
STARS 28 Aug 05:33:08 05:37:18 39° 262° (W) 05:41:30 437.465
ITAMSAT 1 28 Aug 05:38:36 05:43:18 36° 296° (WNW) 05:48:00 435.822/435.867
Gurwin Techsat 1B 28 Aug 05:38:39 05:41:41 16° 307° (NW) 05:44:43 435.225
YUBILEINY 28 Aug 05:39:30 05:46:01 24° 77° (ENE) 05:52:31 435.215
HORYU 2 28 Aug 06:07:27 06:11:32 35° 97° (E) 06:15:35 437.375
RS-15 28 Aug 06:10:27 06:21:34 40° 349° (N) 06:32:59 29.354- 29.394
Cosmos 2491 28 Aug 06:14:45 06:23:38 89° 267° (W) 06:32:30 435.465 / 435.565
GOMX 1 28 Aug 06:15:14 06:17:18 12° 82° (E) 06:19:18 467.674
STRAND 1 28 Aug 06:23:30 06:27:14 21° 58° (ENE) 06:30:57 437.568
SO-50 28 Aug 06:24:19 06:27:25 17° 21° (NNE) 06:30:27 436.795
CUBESAT XI-V 28 Aug 06:28:43 06:32:56 35° 264° (W) 06:37:14 437.345
Cubesat XI-IV 28 Aug 06:31:54 06:34:54 15° 87° (E) 06:37:53 437.490
BRITE-PL 28 Aug 06:39:18 06:44:40 40° 95° (E) 06:49:55 437.365/2234.400
AO-7 28 Aug 06:41:06 06:49:01 51° 301° (WNW) 06:56:54 29.400- 29.500
NOAA 15 28 Aug 06:42:24 06:46:37 23° 92° (E) 06:50:48 137.62
CUTE-I 28 Aug 06:43:04 06:46:47 19° 90° (E) 06:50:29 437.470
AO-85 28 Aug 06:54:57 07:00:12 83° 308° (NW) 07:05:08 145.980
NOAA 18 28 Aug 07:26:45 07:31:50 37° 97° (E) 07:36:52 137.9125
Cosmos 2504 28 Aug 07:27:24 07:34:51 38° 86° (E) 07:41:52 435.465 / 435.565
YUBILEINY 28 Aug 07:32:49 07:41:41 88° 279° (W) 07:50:35 435.215
HORYU 2 28 Aug 07:44:11 07:48:01 29° 296° (WNW) 07:51:49 437.375
LilacSat-2 28 Aug 07:47:48 07:51:36 73° 103° (ESE) 07:55:21 437.200
GOMX 1 28 Aug 07:50:50 07:56:21 75° 102° (ESE) 08:01:35 467.674
DOVE 4 28 Aug 07:55:01 07:59:51 40° 96° (E) 08:04:23 437.250
STRAND 1 28 Aug 08:00:51 08:05:55 69° 257° (WSW) 08:11:02 437.568
SO-50 28 Aug 08:04:23 08:08:57 51° 44° (NE) 08:13:23 436.795
Cubesat XI-IV 28 Aug 08:10:20 08:15:42 87° 285° (WNW) 08:21:02 437.490
HO-68 28 Aug 08:12:21 08:17:35 21° 89° (E) 08:22:47 435.675
Cosmos 2491 28 Aug 08:12:57 08:19:16 23° 284° (WNW) 08:25:36 435.465 / 435.565
BRITE-PL 28 Aug 08:17:50 08:23:05 39° 294° (WNW) 08:28:17 437.365/2234.400
NOAA 15 28 Aug 08:21:32 08:26:46 59° 291° (WNW) 08:31:58 137.62
CUTE-I 28 Aug 08:22:05 08:27:23 71° 289° (WNW) 08:32:40 437.470
RS-15 28 Aug 08:26:10 08:37:49 45° 22° (NNE) 08:49:31 29.354- 29.394
CINEMA 3 28 Aug 08:32:01 08:35:51 26° 92° (E) 08:39:31 145.822/145.860
AO-7 28 Aug 08:35:13 08:39:57 17° 325° (NW) 08:44:39 29.400- 29.500
AO-85 28 Aug 08:37:19 08:41:20 23° 329° (NNW) 08:45:09 145.980
SEEDS 28 Aug 08:44:12 08:47:11 19° 91° (E) 08:50:09 437.485
CUBEBUG 2 28 Aug 08:48:08 08:48:57 10° 85° (E) 08:49:46 437.445
PRISM 28 Aug 09:06:08 09:10:13 73° 73° (ENE) 09:14:21 437.425
CANX-2 28 Aug 09:06:13 09:10:20 47° 99° (E) 09:14:26 2200.000
NOAA 18 28 Aug 09:07:28 09:12:31 39° 296° (WNW) 09:17:31 137.9125
ANTELSAT 28 Aug 09:10:07 09:12:03 13° 56° (ENE) 09:13:58 437.575/2403.000
CUTE 1.7 + AOD 2 28 Aug 09:12:12 09:16:19 47° 99° (E) 09:20:24 437.475
AAUSAT CUBESAT 2 28 Aug 09:13:25 09:16:35 21° 92° (E) 09:19:45 437.432
Cosmos 2504 28 Aug 09:19:53 09:28:01 55° 286° (WNW) 09:35:38 435.465 / 435.565
COMPASS 1 28 Aug 09:21:43 09:25:27 31° 95° (E) 09:29:11 437.405
LilacSat-2 28 Aug 09:23:47 09:25:23 12° 300° (WNW) 09:26:58 437.200
GOMX 1 28 Aug 09:29:49 09:33:48 21° 302° (WNW) 09:37:41 467.674
DOVE 4 28 Aug 09:32:54 09:37:24 32° 296° (WNW) 09:41:41 437.250
YUBILEINY 28 Aug 09:33:00 09:39:53 25° 303° (WNW) 09:46:48 435.215
AIST 1 28 Aug 09:33:27 09:37:23 34° 91° (E) 09:41:21
ISS 28 Aug 09:36:03 09:38:51 26° 144° (SE) 09:41:41 145.825
TIGRISAT 28 Aug 09:39:06 09:42:31 21° 62° (ENE) 09:45:53 435.000
SO-50 28 Aug 09:45:19 09:49:11 27° 244° (WSW) 09:52:57 436.795
CUSAT 1 28 Aug 09:48:55 09:54:25 33° 68° (ENE) 10:00:56 437.405
Cubesat XI-IV 28 Aug 09:51:46 09:55:03 17° 306° (NW) 09:58:20 437.490
HO-68 28 Aug 09:58:59 10:06:13 87° 291° (WNW) 10:13:23 435.675
Oscar 11 28 Aug 10:01:12 10:04:54 27° 94° (E) 10:08:34 145.826/435.025
NOAA 15 28 Aug 10:03:42 10:05:29 12° 311° (NW) 10:07:18 137.62
CUTE-I 28 Aug 10:03:56 10:06:32 14° 308° (NW) 10:09:08 437.470
BEESAT 2 28 Aug 10:04:25 10:06:41 15° 112° (ESE) 10:08:57 435.950
UNISAT 6 28 Aug 10:06:58 10:11:11 38° 68° (ENE) 10:15:21 437.425
CINEMA 3 28 Aug 10:08:52 10:13:09 39° 292° (WNW) 10:17:14 145.822/145.860
FUNcube-1 28 Aug 10:09:36 10:13:15 29° 95° (E) 10:16:52 145.935
UWE-3 28 Aug 10:18:11 10:22:22 58° 101° (E) 10:26:27 435.000/436.395/437.385
SEEDS 28 Aug 10:19:05 10:23:10 50° 289° (WNW) 10:27:14 437.485
BEESAT 3 28 Aug 10:19:31 10:23:08 36° 120° (ESE) 10:26:47 437.485
AO-85 28 Aug 10:21:40 10:23:29 12° 353° (N) 10:25:16 145.980
CUBEBUG 2 28 Aug 10:21:59 10:26:17 87° 289° (WNW) 10:30:27 437.445
ZACube-1 28 Aug 10:31:13 10:35:18 52° 100° (E) 10:39:21 437.345
QB50P1 28 Aug 10:34:09 10:36:13 13° 57° (ENE) 10:38:17 145.935-145.965
RS-15 28 Aug 10:39:36 10:52:03 88° 52° (NE) 11:04:21 29.354- 29.394
CANX-2 28 Aug 10:42:43 10:45:55 21° 297° (WNW) 10:49:06 2200.000
ANTELSAT 28 Aug 10:43:30 10:48:04 82° 77° (ENE) 10:52:36 437.575/2403.000
POPSAT HIP 1 28 Aug 10:43:36 10:46:12 16° 59° (ENE) 10:48:49 437.405
PRISM 28 Aug 10:44:13 10:46:02 13° 272° (W) 10:47:52 437.425
DELFI C3 28 Aug 10:46:09 10:49:48 33° 96° (E) 10:53:26 145.870
AAUSAT CUBESAT 2 28 Aug 10:48:19 10:52:16 43° 290° (WNW) 10:56:13 437.432
CUTE 1.7 + AOD 2 28 Aug 10:48:42 10:51:52 21° 297° (WNW) 10:55:03 437.475
DANDE 28 Aug 10:52:07 10:56:51 36° 72° (ENE) 11:02:52 436.750
COMPASS 1 28 Aug 10:57:19 11:00:59 30° 293° (WNW) 11:04:37 437.405
PCSat 28 Aug 11:08:35 11:09:05 10° 101° (E) 11:09:34 145.827
DUCHIFAT 1 28 Aug 11:09:26 11:12:52 24° 64° (ENE) 11:16:17 145.980
AIST 1 28 Aug 11:11:18 11:15:02 27° 290° (WNW) 11:18:49
HUMSAT D 28 Aug 11:11:29 11:15:08 31° 96° (E) 11:18:47 437.325/437.525
ISS 28 Aug 11:11:48 11:15:06 79° 342° (NNW) 11:18:24 145.825
QB50P2 28 Aug 11:12:48 11:16:32 30° 66° (ENE) 11:20:18 145.880/145.840
TIGRISAT 28 Aug 11:14:24 11:18:54 54° 260° (W) 11:23:20 435.000
POLYITAN 1 28 Aug 11:15:18 11:19:03 30° 66° (ENE) 11:22:49 437.675
JAS-2 28 Aug 11:15:49 11:19:50 22° 55° (NE) 11:24:06 435.910
Cosmos 2504 28 Aug 11:19:44 11:23:23 13° 310° (NW) 11:26:58 435.465 / 435.565
NANOSAT C BR1 28 Aug 11:23:06 11:26:57 34° 67° (ENE) 11:30:49 145.865
CUSAT 1 28 Aug 11:30:33 11:36:40 59° 263° (W) 11:44:05 437.405
Oscar 11 28 Aug 11:37:10 11:41:06 35° 293° (WNW) 11:45:02 145.826/435.025
BEESAT 2 28 Aug 11:40:03 11:44:00 72° 310° (NW) 11:48:00 435.950
UNISAT 6 28 Aug 11:44:04 11:48:00 28° 265° (W) 11:51:53 437.425
FUNcube-1 28 Aug 11:45:51 11:49:30 30° 293° (WNW) 11:53:07 145.935
HO-68 28 Aug 11:47:42 11:53:03 23° 310° (NW) 11:58:23 435.675
GONETS M04 28 Aug 11:49:29 11:57:09 36° 83° (E) 12:04:53
UWE-3 28 Aug 11:55:39 11:58:24 17° 300° (WNW) 12:01:08 435.000/436.395/437.385
BEESAT 3 28 Aug 11:57:17 12:00:50 32° 320° (NW) 12:04:27 437.485
CUBEBUG 2 28 Aug 12:00:36 12:02:12 12° 304° (NW) 12:03:49 437.445
BUGSAT 1 28 Aug 12:00:56 12:04:48 35° 67° (ENE) 12:08:42 437.445
AO-85 28 Aug 12:03:14 12:05:54 15° 19° (NNE) 12:08:27 145.980
ESTCUBE 1 28 Aug 12:04:08 12:07:39 22° 92° (E) 12:11:09 437.505/2401.250
QB50P1 28 Aug 12:07:06 12:11:23 85° 252° (WSW) 12:15:41 145.935-145.965
ZACube-1 28 Aug 12:08:20 12:11:16 19° 299° (WNW) 12:14:09 437.345
AISAT 28 Aug 12:10:05 12:12:31 14° 88° (E) 12:14:57 437.250
POPSAT HIP 1 28 Aug 12:17:14 12:21:30 69° 258° (WSW) 12:25:47 437.405
DELFI C3 28 Aug 12:21:12 12:24:33 26° 294° (WNW) 12:27:53 145.870
AIST 2 28 Aug 12:21:39 12:24:27 18° 113° (ESE) 12:27:16 435.215
Cosmos 2499 28 Aug 12:22:32 12:29:55 42° 88° (E) 12:36:48 435.465 / 435.565
ANTELSAT 28 Aug 12:23:15 12:25:21 13° 272° (W) 12:27:28 437.575/2403.000
Oscar 19 28 Aug 12:27:38 12:31:17 20° 57° (ENE) 12:34:56 437.125/150
DANDE 28 Aug 12:34:44 12:39:38 41° 264° (W) 12:45:54 436.750
DUCHIFAT 1 28 Aug 12:44:21 12:48:22 40° 262° (W) 12:52:24 145.980
PCSat 28 Aug 12:46:03 12:51:23 63° 120° (ESE) 12:56:46 145.827
AUBIESAT-1 28 Aug 12:46:53 12:50:54 49° 105° (ESE) 12:54:36 437.475
HUMSAT D 28 Aug 12:47:13 12:50:43 28° 294° (WNW) 12:54:13 437.325/437.525
QB50P2 28 Aug 12:48:28 12:52:18 32° 264° (W) 12:56:10 145.880/145.840
ISS 28 Aug 12:48:33 12:51:47 52° 2° (N) 12:55:01 145.825
POLYITAN 1 28 Aug 12:51:00 12:54:50 31° 264° (W) 12:58:41 437.675
RS-15 28 Aug 12:52:58 13:03:11 33° 256° (WSW) 13:13:17 29.354- 29.394
M-CUBED/EXP-1 PRIME 28 Aug 12:53:12 12:57:26 71° 108° (ESE) 13:01:18 437.505
CUBEBUG 1 28 Aug 12:56:00 13:00:17 44° 99° (E) 13:04:31 437.445
VELOX 1 28 Aug 12:56:06 13:00:16 36° 97° (E) 13:04:23 145.980
50 SAT 28 Aug 12:57:19 13:00:43 35° 98° (E) 13:04:06 437.505
NANOSAT C BR1 28 Aug 12:59:02 13:02:43 28° 265° (W) 13:06:25 145.865
JAS-2 28 Aug 12:59:10 13:04:22 67° 258° (WSW) 13:10:03 435.910
SPROUT 28 Aug 13:10:06 13:13:48 28° 95° (E) 13:17:27 437.525
DX 1 28 Aug 13:10:41 13:14:44 35° 97° (E) 13:18:45 434.975-435.025
CUSAT 1 28 Aug 13:15:31 13:17:49 12° 279° (W) 13:20:16 437.405
BEESAT 2 28 Aug 13:19:55 13:22:32 16° 332° (NNW) 13:25:09 435.950
BUGSAT 1 28 Aug 13:36:37 13:40:14 27° 265° (W) 13:43:52 437.445
BEESAT 3 28 Aug 13:38:37 13:39:42 11° 342° (NNW) 13:40:47 437.485
ESTCUBE 1 28 Aug 13:40:20 13:44:43 49° 290° (WNW) 13:49:05 437.505/2401.250
Gurwin Techsat 1B 28 Aug 13:43:07 13:48:00 39° 65° (ENE) 13:52:55 435.225
AO-85 28 Aug 13:43:14 13:47:31 44° 43° (NE) 13:51:28 145.980
ITAMSAT 1 28 Aug 13:44:26 13:47:25 16° 54° (NE) 13:50:24 435.822/435.867
GONETS M04 28 Aug 13:44:52 13:53:31 62° 285° (WNW) 14:02:18
AISAT 28 Aug 13:45:03 13:49:31 73° 288° (WNW) 13:53:57 437.250
O/OREOS (USA 219) 28 Aug 13:45:35 13:48:40 18° 101° (E) 13:51:46 437.305
UKube-1 28 Aug 13:49:23 13:53:45 67° 103° (ESE) 13:58:02 .
AIST 2 28 Aug 13:58:25 14:02:30 64° 312° (NW) 14:06:39 435.215
AO-7 28 Aug 14:01:22 14:07:55 27° 46° (NE) 14:14:26 29.400- 29.500
Oscar 19 28 Aug 14:04:52 14:10:02 76° 256° (WSW) 14:15:16 437.125/150
Cosmos 2499 28 Aug 14:15:17 14:22:58 48° 288° (WNW) 14:30:08 435.465 / 435.565
AUBIESAT-1 28 Aug 14:21:55 14:25:01 21° 305° (NW) 14:27:57 437.475
ISS 28 Aug 14:25:06 14:28:24 80° 202° (SSW) 14:31:41 145.825
M-CUBED/EXP-1 PRIME 28 Aug 14:28:44 14:31:23 16° 309° (NW) 14:33:56 437.505
PCSat 28 Aug 14:30:22 14:35:10 31° 321° (NW) 14:40:00 145.827
50 SAT 28 Aug 14:31:22 14:34:06 20° 296° (WNW) 14:36:51 437.505
CUBEBUG 1 28 Aug 14:32:47 14:36:20 24° 297° (WNW) 14:39:52 437.445
VELOX 1 28 Aug 14:32:47 14:36:38 29° 296° (WNW) 14:40:27 145.980
SPROUT 28 Aug 14:45:53 14:49:47 34° 293° (WNW) 14:53:39 437.525
DX 1 28 Aug 14:47:03 14:50:51 29° 295° (WNW) 14:54:37 434.975-435.025
SWISSCUBE 28 Aug 14:59:13 15:02:51 21° 92° (E) 15:06:27 437.505
TISAT 1 28 Aug 15:01:19 15:05:34 87° 104° (ESE) 15:09:45 437.305
BEESAT 28 Aug 15:15:57 15:20:01 27° 94° (E) 15:24:02 436.000
ITAMSAT 1 28 Aug 15:20:57 15:26:08 84° 73° (ENE) 15:31:21 435.822/435.867
Gurwin Techsat 1B 28 Aug 15:23:09 15:28:00 35° 264° (W) 15:32:53 435.225
O/OREOS (USA 219) 28 Aug 15:23:10 15:27:37 59° 300° (WNW) 15:32:08 437.305
AISAT 28 Aug 15:23:48 15:25:12 11° 306° (NW) 15:26:35 437.250
AO-85 28 Aug 15:24:07 15:27:44 27° 244° (WSW) 15:31:08 145.980
UKube-1 28 Aug 15:26:31 15:29:19 17° 301° (WNW) 15:32:06 .
AIST 2 28 Aug 15:39:08 15:41:47 16° 334° (NNW) 15:44:27 435.215
YUBILEINY 28 Aug 15:42:36 15:47:38 16° 48° (NE) 15:52:38 435.215
GONETS M04 28 Aug 15:47:18 15:52:35 17° 312° (NW) 15:57:55
Oscar 19 28 Aug 15:48:40 15:50:17 11° 275° (W) 15:51:53 437.125/150
AO-7 28 Aug 15:51:18 15:59:40 85° 69° (ENE) 16:08:04 29.400- 29.500
ISS 28 Aug 16:02:09 16:04:29 18° 220° (SW) 16:06:49 145.825
ITUPSAT 1 28 Aug 16:03:37 16:08:24 71° 103° (ESE) 16:13:10 437.325
Cosmos 2499 28 Aug 16:16:17 16:18:14 11° 313° (NW) 16:20:10 435.465 / 435.565
PCSat 28 Aug 16:17:49 16:20:23 13° 346° (NNW) 16:22:56 145.827
BRITE-PL 28 Aug 16:19:33 16:21:22 12° 50° (NE) 16:23:13 437.365/2234.400
NOAA 15 28 Aug 16:31:26 16:32:38 11° 48° (NE) 16:33:50 137.62
SWISSCUBE 28 Aug 16:36:18 16:40:58 54° 290° (WNW) 16:45:36 437.505
TISAT 1 28 Aug 16:38:41 16:40:35 13° 303° (WNW) 16:42:27 437.305
BEESAT 2 28 Aug 16:40:03 16:41:40 12° 20° (NNE) 16:43:17 435.950
KKS-1 28 Aug 16:45:17 16:49:01 25° 94° (E) 16:52:42 437.445
BEESAT 28 Aug 16:53:27 16:57:57 42° 293° (WNW) 17:02:25 436.000
BEESAT 3 28 Aug 16:55:40 16:58:28 18° 30° (NNE) 17:01:15 437.485
MOZHAYETS 4 28 Aug 16:57:46 17:02:10 43° 98° (E) 17:06:32
ITAMSAT 1 28 Aug 17:03:18 17:06:17 15° 272° (W) 17:09:18 435.822/435.867
O/OREOS (USA 219) 28 Aug 17:06:14 17:08:03 12° 322° (NW) 17:09:53 437.305
HORYU 2 28 Aug 17:09:03 17:13:24 55° 70° (ENE) 17:17:46 437.375
Cosmos 2504 28 Aug 17:15:16 17:19:39 16° 53° (NE) 17:23:57 435.465 / 435.565
STARS 28 Aug 17:18:24 17:22:11 27° 95° (E) 17:25:54 437.465
NOAA 18 28 Aug 17:18:42 17:22:36 20° 55° (NE) 17:26:31 137.9125
GOMX 1 28 Aug 17:26:06 17:29:57 21° 58° (ENE) 17:33:54 467.674
Cosmos 2491 28 Aug 17:27:13 17:33:29 23° 76° (ENE) 17:39:47 435.465 / 435.565
DOVE 4 28 Aug 17:29:51 17:31:53 12° 52° (NE) 17:33:55 437.250
YUBILEINY 28 Aug 17:38:04 17:46:46 59° 74° (ENE) 17:55:21 435.215
ITUPSAT 1 28 Aug 17:42:29 17:45:44 19° 302° (WNW) 17:48:59 437.325
AO-7 28 Aug 17:46:51 17:53:25 25° 269° (W) 18:00:01 29.400- 29.500
BRITE-PL 28 Aug 17:53:47 17:58:40 60° 71° (ENE) 18:04:00 437.365/2234.400
Cubesat XI-IV 28 Aug 17:57:11 18:02:02 37° 65° (ENE) 18:06:55 437.490
PCSat 28 Aug 18:03:52 18:06:16 13° 13° (NNE) 18:08:41 145.827
NOAA 15 28 Aug 18:06:11 18:11:18 54° 69° (ENE) 18:16:28 137.62
CUTE-I 28 Aug 18:08:27 18:13:31 46° 67° (ENE) 18:18:35 437.470
BEESAT 2 28 Aug 18:16:47 18:20:34 38° 42° (NE) 18:24:20 435.950
CUBESAT XI-V 28 Aug 18:20:31 18:25:01 42° 98° (E) 18:29:29 437.345
KKS-1 28 Aug 18:21:32 18:25:44 40° 292° (WNW) 18:29:54 437.445
BEESAT 3 28 Aug 18:32:43 18:36:43 86° 47° (NE) 18:40:42 437.485
LilacSat-2 28 Aug 18:33:19 18:37:07 63° 74° (ENE) 18:40:54 437.200
MOZHAYETS 4 28 Aug 18:35:22 18:39:08 25° 297° (WNW) 18:42:52
HO-68 28 Aug 18:45:39 18:51:27 27° 53° (NE) 18:57:15 435.675
HORYU 2 28 Aug 18:47:07 18:50:17 19° 268° (W) 18:53:28 437.375
STARS 28 Aug 18:54:33 18:58:37 37° 293° (WNW) 19:02:38 437.465
NOAA 18 28 Aug 18:57:06 19:02:39 82° 255° (WSW) 19:08:13 137.9125
AIST 2 28 Aug 19:00:04 19:02:19 14° 22° (NNE) 19:04:32 435.215
GOMX 1 28 Aug 19:02:15 19:07:25 74° 259° (WSW) 19:12:53 467.674
DOVE 4 28 Aug 19:03:23 19:08:32 62° 72° (ENE) 19:13:48 437.250
Cosmos 2504 28 Aug 19:07:17 19:14:36 72° 78° (ENE) 19:21:45 435.465 / 435.565
Cosmos 2491 28 Aug 19:20:23 19:29:08 90° 276° (W) 19:37:58 435.465 / 435.565
BRITE-PL 28 Aug 19:33:49 19:37:38 22° 272° (W) 19:41:42 437.365/2234.400
YUBILEINY 28 Aug 19:35:25 19:43:12 37° 276° (W) 19:50:54 435.215
CINEMA 3 28 Aug 19:36:36 19:41:16 41° 68° (ENE) 19:45:53 145.822/145.860
AIST 1 28 Aug 19:36:49 19:39:24 15° 63° (ENE) 19:41:57
Cubesat XI-IV 28 Aug 19:37:11 19:42:07 37° 263° (W) 19:47:04 437.490
SEEDS 28 Aug 19:39:50 19:43:03 22° 64° (ENE) 19:46:18 437.485
UWE-3 28 Aug 19:45:36 19:47:15 12° 56° (ENE) 19:48:54 435.000/436.395/437.385
PCSat 28 Aug 19:46:50 19:51:33 29° 38° (NE) 19:56:14 145.827
NOAA 15 28 Aug 19:47:08 19:51:24 25° 267° (W) 19:55:43 137.62
CUBEBUG 2 28 Aug 19:48:42 19:51:49 18° 60° (ENE) 19:54:53 437.445
CUTE-I 28 Aug 19:49:06 19:53:44 30° 265° (W) 19:58:24 437.470
BEESAT 2 28 Aug 19:54:47 19:58:20 30° 242° (WSW) 20:01:51 435.950
CUBESAT XI-V 28 Aug 19:58:15 20:02:13 27° 296° (WNW) 20:06:10 437.345
ZACube-1 28 Aug 19:58:48 19:59:18 10° 55° (NE) 19:59:48 437.345
CANX-2 28 Aug 20:02:38 20:06:44 55° 72° (ENE) 20:10:53 2200.000
STRAND 1 28 Aug 20:07:24 20:11:52 30° 95° (E) 20:16:19 437.568
AAUSAT CUBESAT 2 28 Aug 20:07:33 20:10:51 24° 64° (ENE) 20:14:09 437.432
CUTE 1.7 + AOD 2 28 Aug 20:08:31 20:12:37 56° 72° (ENE) 20:16:45 437.475
LilacSat-2 28 Aug 20:10:07 20:11:49 13° 271° (W) 20:13:32 437.200
BEESAT 3 28 Aug 20:12:09 20:13:48 12° 249° (WSW) 20:15:25 437.485
COMPASS 1 28 Aug 20:16:13 20:19:58 35° 68° (ENE) 20:23:45 437.405
HO-68 28 Aug 20:31:17 20:38:30 80° 253° (WSW) 20:45:45 435.675
AIST 2 28 Aug 20:37:44 20:41:47 46° 44° (NE) 20:45:50 435.215
NOAA 18 28 Aug 20:41:29 20:44:10 14° 274° (W) 20:46:52 137.9125
DOVE 4 28 Aug 20:42:35 20:46:37 22° 271° (W) 20:50:44 437.250
GOMX 1 28 Aug 20:44:38 20:46:29 12° 278° (W) 20:48:22 467.674
Oscar 11 28 Aug 20:59:40 21:03:34 34° 67° (ENE) 21:07:29 145.826/435.025
Cosmos 2504 28 Aug 21:01:43 21:07:12 24° 280° (W) 21:12:39 435.465 / 435.565
FUNcube-1 28 Aug 21:08:34 21:12:41 40° 69° (ENE) 21:16:43 145.935
AIST 1 28 Aug 21:13:07 21:17:33 70° 262° (W) 21:21:54
CINEMA 3 28 Aug 21:14:04 21:18:28 31° 266° (W) 21:22:51 145.822/145.860
SEEDS 28 Aug 21:14:34 21:18:32 42° 262° (W) 21:22:31 437.485
UWE-3 28 Aug 21:18:29 21:23:01 79° 76° (ENE) 21:27:28 435.000/436.395/437.385
Cosmos 2491 28 Aug 21:20:27 21:27:19 25° 303° (WNW) 21:34:16 435.465 / 435.565
CUBEBUG 2 28 Aug 21:23:22 21:28:00 67° 258° (WSW) 21:32:33 437.445
PCSat 28 Aug 21:30:01 21:35:26 69° 239° (WSW) 21:40:48 145.827
ZACube-1 28 Aug 21:30:24 21:34:49 69° 73° (ENE) 21:39:09 437.345
DELFI C3 28 Aug 21:35:49 21:39:21 33° 68° (ENE) 21:42:56 145.870
CANX-2 28 Aug 21:40:15 21:42:58 17° 270° (W) 21:45:42 2200.000
AAUSAT CUBESAT 2 28 Aug 21:42:19 21:46:09 38° 263° (W) 21:50:01 437.432
CUTE 1.7 + AOD 2 28 Aug 21:46:07 21:48:50 17° 270° (W) 21:51:32 437.475
STRAND 1 28 Aug 21:46:23 21:51:12 43° 293° (WNW) 21:56:00 437.568
COMPASS 1 28 Aug 21:52:09 21:55:36 25° 266° (W) 21:59:04 437.405
GONETS M04 28 Aug 21:53:38 22:00:28 24° 56° (NE) 22:07:14
AUBIESAT-1 28 Aug 22:02:46 22:06:07 20° 54° (NE) 22:09:25 437.475
HUMSAT D 28 Aug 22:06:25 22:10:14 37° 69° (ENE) 22:14:02 437.325/437.525
Cosmos 2499 28 Aug 22:08:50 22:13:24 18° 55° (NE) 22:17:58 435.465 / 435.565
M-CUBED/EXP-1 PRIME 28 Aug 22:08:53 22:12:46 26° 57° (ENE) 22:16:37 437.505
O/OREOS (USA 219) 28 Aug 22:11:38 22:14:06 14° 41° (NE) 22:16:35 437.305
AIST 2 28 Aug 22:16:35 22:20:05 26° 244° (WSW) 22:23:35 435.215
PRISM 28 Aug 22:18:41 22:22:52 67° 102° (ESE) 22:27:01 437.425
HO-68 28 Aug 22:22:54 22:27:21 17° 274° (W) 22:31:51 435.675
ANTELSAT 28 Aug 22:33:04 22:34:46 12° 87° (E) 22:36:27 437.575/2403.000
Oscar 11 28 Aug 22:36:03 22:39:45 27° 266° (W) 22:43:28 145.826/435.025
FUNcube-1 28 Aug 22:45:25 22:49:03 25° 267° (W) 22:52:38 145.935
UWE-3 28 Aug 22:57:48 23:00:01 13° 272° (W) 23:02:12 435.000/436.395/437.385
TIGRISAT 28 Aug 23:02:19 23:05:43 22° 93° (E) 23:09:03 435.000
ESTCUBE 1 28 Aug 23:07:21 23:11:20 32° 66° (ENE) 23:15:21 437.505/2401.250
ZACube-1 28 Aug 23:09:04 23:11:33 15° 271° (W) 23:14:01 437.345
AISAT 28 Aug 23:10:53 23:14:20 22° 62° (ENE) 23:17:48 437.250
DELFI C3 28 Aug 23:11:02 23:14:17 24° 266° (W) 23:17:33 145.870
UKube-1 28 Aug 23:14:17 23:16:25 14° 56° (ENE) 23:18:35 .
PCSat 28 Aug 23:16:01 23:17:50 12° 258° (WSW) 23:19:38 145.827
UNISAT 6 28 Aug 23:30:54 23:35:03 44° 98° (E) 23:39:08 437.425
AUBIESAT-1 28 Aug 23:35:29 23:40:07 69° 252° (WSW) 23:44:43 437.475
50 SAT 28 Aug 23:38:25 23:41:34 30° 68° (ENE) 23:44:45 437.505
M-CUBED/EXP-1 PRIME 28 Aug 23:42:25 23:47:01 51° 255° (WSW) 23:51:35 437.505
HUMSAT D 28 Aug 23:42:35 23:45:58 24° 266° (W) 23:49:21 437.325/437.525
O/OREOS (USA 219) 28 Aug 23:49:46 23:54:23 72° 62° (ENE) 23:58:59 437.305
QB50P1 28 Aug 23:49:46 23:51:20 12° 87° (E) 23:52:53 145.935-145.965
GONETS M04 28 Aug 23:49:50 23:58:47 85° 81° (E) 00:07:39
PRISM 28 Aug 23:55:08 23:57:42 16° 301° (WNW) 00:00:16 437.425
CUBEBUG 1 28 Aug 23:55:30 23:59:51 61° 72° (ENE) 00:04:15 437.445
VELOX 1 28 Aug 23:56:59 00:01:18 54° 70° (ENE) 00:05:41 145.980
POPSAT HIP 1 28 Aug 23:59:14 00:01:37 15° 89° (E) 00:03:58 437.405
Cosmos 2499 29 Aug 00:00:44 00:07:51 80° 79° (E) 00:14:59 435.465 / 435.565
SO-50 29 Aug 00:02:17 00:06:45 38° 119° (ESE) 00:11:11 436.795
JAS-2 29 Aug 00:03:23 00:07:36 17° 86° (E) 00:12:03 435.910
SPROUT 29 Aug 00:07:14 00:11:10 36° 68° (ENE) 00:15:08 437.525
ANTELSAT 29 Aug 00:07:46 00:12:05 79° 286° (WNW) 00:16:20 437.575/2403.000
DANDE 29 Aug 00:09:25 00:10:39 12° 86° (E) 00:11:58 436.750
DX 1 29 Aug 00:09:46 00:14:00 51° 70° (ENE) 00:18:17 434.975-435.025
